DW3383 Weather Reports


Display with metric or nautical units.
time (UTC)temp
F
wind
direction
speed
MPH
gust
MPH
rain 1hr
in
rain 24hr
in
rain mn
in
humidity
%
barometer
mb
20210927180805 32 199 0.0 3.0 0.00 0.00 0.00 99 996.0
20210927180305 32 0 0.0 1.0 0.00 0.00 0.00 99 996.1
20210927170804 32 241 0.0 0.0 0.00 0.00 0.00 99 996.2
20210927170304 32 108 0.0 3.0 0.00 0.00 0.00 99 996.4
20210927160805 32 0 0.0 0.0 0.00 0.00 0.00 99 996.7
20210927160305 32 0 0.0 3.0 0.00 0.00 0.00 99 996.6
20210927150805 32 346 0.0 0.0 0.00 0.00 0.00 99 997.0
20210927150305 32 346 0.0 3.0 0.00 0.00 0.00 99 997.0
20210927140804 32 352 0.0 0.0 0.00 0.00 0.00 99 997.5
20210927140305 32 352 0.0 0.0 0.00 0.00 0.00 99 997.6
20210927130805 32 352 0.0 0.0 0.00 0.00 0.00 99 997.9
20210927130304 32 352 0.0 2.0 0.00 0.00 0.00 99 997.9
20210927120805 32 0 0.0 0.0 0.00 0.00 0.00 99 998.3
20210927120305 32 0 0.0 2.0 0.00 0.00 0.00 99 998.3
20210927110805 33 0 0.0 0.0 0.00 0.00 0.00 99 998.5
20210927110305 33 0 0.0 2.0 0.00 0.00 0.00 99 998.6
20210927100804 33 358 0.0 2.0 0.00 0.00 0.00 98 998.9
20210927100305 33 0 0.0 2.0 0.00 0.00 0.00 98 999.0
20210927090804 34 284 0.0 0.0 0.00 0.00 0.00 98 999.4
20210927090304 34 284 0.0 3.0 0.00 0.00 0.00 98 999.5
20210927080805 34 240 0.0 0.0 0.00 0.00 0.00 98 999.5
20210927080305 34 240 0.0 1.0 0.00 0.00 0.00 98 999.5
20210927070857 35 0 0.0 0.0 0.00 0.00 0.00 98 1000.0
20210927070305 35 0 0.0 2.0 0.00 0.00 0.00 98 999.9
20210927060804 35 0 0.0 0.0 0.00 0.00 0.00 98 1000.2
20210927060305 35 0 0.0 2.0 0.00 0.00 0.00 98 1000.2
20210927050805 35 212 0.0 0.0 0.00 0.00 0.00 97 1000.3
20210927050305 35 212 0.0 2.0 0.00 0.00 0.00 97 1000.3
20210927040806 36 284 0.0 0.0 0.00 0.00 0.00 97 1000.5
20210927040305 36 284 0.0 0.0 0.00 0.00 0.00 97 1000.6
20210927030805 36 284 0.0 0.0 0.00 0.00 0.00 97 1000.6
20210927030306 36 284 0.0 1.0 0.00 0.00 0.00 97 1000.6
20210927020805 36 312 1.0 2.0 0.00 0.00 0.00 96 1000.6
20210927020305 36 257 1.0 2.0 0.00 0.00 0.00 96 1000.6
20210927010804 37 266 0.0 1.0 0.00 0.00 0.00 95 1000.7
20210927010305 37 261 0.0 3.0 0.00 0.00 0.00 94 1000.6
20210927000804 37 259 1.0 2.0 0.00 0.00 0.00 93 1000.4
20210927000305 37 259 1.0 2.0 0.00 0.00 0.00 92 1000.5
20210926230804 38 260 1.0 1.0 0.00 0.00 0.00 87 1000.4
20210926230306 38 285 1.0 3.0 0.00 0.00 0.00 85 1000.4
20210926220804 39 286 2.0 3.0 0.00 0.00 0.00 79 1000.6
20210926220305 39 284 2.0 3.0 0.00 0.00 0.00 78 1000.6
20210926210805 39 282 1.0 2.0 0.00 0.00 0.00 78 1000.8
20210926210305 39 273 2.0 5.0 0.00 0.00 0.00 78 1000.9
20210926200812 38 284 1.0 2.0 0.00 0.00 0.00 79 1000.9
20210926200305 38 259 1.0 5.0 0.00 0.00 0.00 79 1000.9
20210926190804 36 257 1.0 2.0 0.00 0.00 0.00 82 1001.2
20210926190305 36 249 0.0 3.0 0.00 0.00 0.00 83 1001.2